STARLINK-33924, 64149

Orbit data source: Space-Track

STARLINK-33924, 64149 is a payload satellite owned by SpaceX/Seattle (US) in SSO that was launched on Tue, 27 May 2025 UTC via an FALCON 9 launch vehicle from the Air Force Western Test Range (AFWTR). Payload-class satellites include a variety of spacecraft equipped with specific instruments for various scientific and technological missions. These include communications satellites like Starlink; space stations such as the ISS; scientific satellites like the Hubble; Earth observation satellites from companies like Planet Labs, Umbra, and HawkEye 360; GPS; miniature CubeSats for education and research; and military/defense satellites.

Loading next visibility...
Identifier
64149, 2025-112D
Orbit
SSO
Country
Flag of USUS
Related business
Manufacturer
SpaceX/Seattle
Mission
Operational Commercial Communications
Bus & Motor
STARLINK V2MO, Unknown motor
Mass
575 kg wet, ~530 kg dry
Launch date (UTC)
2025-05-27 (1 year ago)
Launch vehicle
FALCON 9
Launch site
Air Force Western Test Range (AFWTR)
Object type
Payload
Rocket body
Debris
Shape & HBR
Box + 2 Pan, 17.7 m
Radar Cross Section
36.964 m², Large (>1 m²)

Expand to show TLE details & history
Last TLE update: 15 hours ago

TLE from 15 hours ago
0 STARLINK-33924
1 64149U 25112D   26145.11260102  .00002840  00000-0  20075-3 0  9997
2 64149  97.4493 196.4175 0001692 132.2043 227.9328 15.05657551 54808
Epoch: 2026-05-25T02:42Z
TLE epoch observation values (Epoch: 2026-05-25T02:42:08.728Z)
Latitude
-0.00001°
Longitude
-86.82393°
Altitude
553.343 km
Speed
7.585 km/s
True Right ascension
13h 05m 40s
True Declination
0° 00' 00"
Sunlit
Object was in full shadow at epoch
Visualization orbit readout
Latitude
Unknown
Longitude
Unknown
Altitude
Unknown
Speed
Unknown
Apparent Right ascension
Unknown
Apparent Declination
Unknown
Sunlit
N/A
Visualization observer readout
Local Sidereal Time
02:48:32
Azimuth
Unknown
Elevation
Unknown
Doppler factor
Unknown
Orbital elements
Apogee altitude
547.646 km
Perigee altitude
545.303 km
Semi-major axis
6,924.612 km
Eccentricity
0.00017
Inclination
97.4493°
RAAN
196.4175°
Arg. of periapsis
132.2043°
True anomaly
227.91841°
Mean anomaly
227.9328°
Eccentric anomaly
227.9256°
Mean motion
3.7666 °/min
Orbital period
95.58 mins
BSTAR
0.00020075
Loading maneuver chart data...
Computing Atmospheric mass density...
Loading historical data...
Loading historical data...
Loading historical data...
Loading historical data...
Loading historical data...
Loading historical data...
Loading historical data...

Documentation

Showing up to 5 results
|